Time,TemperatureF,DewpointF,PressureIn,WindDirection,WindDirectionDegrees,WindSpeedMPH,WindSpeedGustMPH,Humidity,HourlyPrecipIn,Conditions,Clouds,dailyrainin,SoftwareType,DateUTC
2013-05-11 00:02:00,52.3,50.9,29.94,SSW,199,0.0,1.0,95,0.00,,,0.57,meteohub,2013-05-10 22:02:00,
2013-05-11 00:07:00,52.3,50.7,29.94,SSW,199,0.0,1.0,94,0.00,,,0.57,meteohub,2013-05-10 22:07:00,
2013-05-11 00:12:00,52.2,50.5,29.94,SSW,200,0.0,1.0,94,0.00,,,0.57,meteohub,2013-05-10 22:12:00,
2013-05-11 00:17:00,52.2,50.5,29.95,SSW,200,0.0,1.0,94,0.00,,,0.57,meteohub,2013-05-10 22:17:00,
2013-05-11 00:22:00,52.2,50.7,29.95,South,173,0.0,1.0,95,0.00,,,0.57,meteohub,2013-05-10 22:22:00,
2013-05-11 00:32:00,52.0,50.5,29.95,South,175,0.0,1.0,95,0.00,,,0.57,meteohub,2013-05-10 22:32:00,
2013-05-11 00:42:00,52.0,50.5,29.95,SSW,194,0.0,1.0,95,0.00,,,0.57,meteohub,2013-05-10 22:42:00,
2013-05-11 00:47:00,51.8,50.4,29.95,SSW,194,0.0,1.0,95,0.00,,,0.57,meteohub,2013-05-10 22:47:00,
2013-05-11 00:52:00,51.8,50.4,29.95,South,186,0.0,1.0,95,0.00,,,0.57,meteohub,2013-05-10 22:52:00,
2013-05-11 00:57:00,51.6,50.2,29.95,South,186,0.0,1.0,95,0.00,,,0.57,meteohub,2013-05-10 22:57:00,
2013-05-11 01:02:00,51.6,50.2,29.95,SSW,202,0.0,1.0,95,0.00,,,0.57,meteohub,2013-05-10 23:02:00,
2013-05-11 01:07:00,51.6,50.2,29.95,SSW,202,0.0,1.0,95,0.00,,,0.57,meteohub,2013-05-10 23:07:00,
2013-05-11 01:12:00,51.6,50.2,29.95,SSW,202,0.0,1.0,95,0.00,,,0.57,meteohub,2013-05-10 23:12:00,
2013-05-11 01:17:00,51.4,50.0,29.95,NNW,329,0.0,1.0,95,0.00,,,0.57,meteohub,2013-05-10 23:17:00,
2013-05-11 01:22:00,51.4,50.0,29.94,NNW,329,0.0,2.0,95,0.00,,,0.57,meteohub,2013-05-10 23:22:00,
2013-05-11 01:27:00,51.4,50.0,29.94,SSW,203,0.0,2.0,95,0.00,,,0.57,meteohub,2013-05-10 23:27:00,
2013-05-11 01:37:00,51.3,49.8,29.94,West,273,0.0,1.0,95,0.00,,,0.57,meteohub,2013-05-10 23:37:00,
2013-05-11 01:42:00,51.3,49.8,29.94,SW,223,0.0,1.0,95,0.00,,,0.57,meteohub,2013-05-10 23:42:00,
2013-05-11 01:52:00,51.3,49.8,29.94,SW,235,0.0,1.0,95,0.00,,,0.57,meteohub,2013-05-10 23:52:00,
2013-05-11 01:57:00,51.1,49.6,29.94,SSW,198,0.0,1.0,95,0.00,,,0.57,meteohub,2013-05-10 23:57:00,
2013-05-11 02:02:00,51.1,49.6,29.94,SSW,198,0.0,1.0,95,0.00,,,0.57,meteohub,2013-05-11 00:02:00,
2013-05-11 02:07:00,51.1,49.6,29.94,SSW,209,0.0,1.0,95,0.00,,,0.00,meteohub,2013-05-11 00:07:00,
2013-05-11 02:12:00,51.1,49.6,29.94,SSW,198,0.0,1.0,95,0.00,,,0.00,meteohub,2013-05-11 00:12:00,
2013-05-11 02:17:00,51.1,49.6,29.94,West,259,0.0,2.0,95,0.00,,,0.00,meteohub,2013-05-11 00:17:00,
2013-05-11 02:27:00,51.1,49.6,29.94,SSW,192,0.0,2.0,95,0.00,,,0.00,meteohub,2013-05-11 00:27:00,
2013-05-11 02:32:00,51.1,49.6,29.94,SSW,192,0.0,2.0,95,0.00,,,0.00,meteohub,2013-05-11 00:32:00,
2013-05-11 02:37:00,51.1,49.6,29.94,SSW,198,0.0,2.0,95,0.00,,,0.00,meteohub,2013-05-11 00:37:00,
2013-05-11 02:42:00,51.1,49.6,29.94,South,171,0.0,2.0,95,0.00,,,0.00,meteohub,2013-05-11 00:42:00,
2013-05-11 02:47:00,51.1,49.6,29.94,SW,218,0.0,2.0,95,0.00,,,0.00,meteohub,2013-05-11 00:47:00,
2013-05-11 02:52:00,51.1,50.0,29.94,SW,218,0.0,2.0,96,0.00,,,0.00,meteohub,2013-05-11 00:52:00,
2013-05-11 02:57:00,51.1,50.0,29.94,South,182,0.0,2.0,96,0.00,,,0.00,meteohub,2013-05-11 00:57:00,
2013-05-11 03:02:00,51.1,50.0,29.94,South,187,0.0,1.0,96,0.00,,,0.00,meteohub,2013-05-11 01:02:00,
2013-05-11 03:07:00,51.1,50.0,29.94,SSW,203,0.0,1.0,96,0.00,,,0.00,meteohub,2013-05-11 01:07:00,
2013-05-11 03:12:00,51.1,50.0,29.94,SSW,203,0.0,1.0,96,0.00,,,0.00,meteohub,2013-05-11 01:12:00,
2013-05-11 03:17:00,51.1,50.0,29.94,SSW,203,0.0,1.0,96,0.00,,,0.00,meteohub,2013-05-11 01:17:00,
2013-05-11 03:22:00,51.1,50.0,29.94,SSE,168,1.0,1.0,96,0.00,,,0.00,meteohub,2013-05-11 01:22:00,
2013-05-11 03:27:00,51.1,49.6,29.94,South,169,0.0,2.0,95,0.00,,,0.00,meteohub,2013-05-11 01:27:00,
2013-05-11 03:32:00,51.1,49.6,29.94,South,169,0.0,2.0,95,0.00,,,0.00,meteohub,2013-05-11 01:32:00,
2013-05-11 03:42:00,51.3,49.6,29.93,South,169,1.0,1.0,94,0.00,,,0.00,meteohub,2013-05-11 01:42:00,
2013-05-11 03:47:00,51.3,49.3,29.94,South,169,0.0,1.0,93,0.00,,,0.00,meteohub,2013-05-11 01:47:00,
2013-05-11 03:52:00,51.3,49.1,29.93,South,169,0.0,1.0,92,0.00,,,0.00,meteohub,2013-05-11 01:52:00,
2013-05-11 03:57:00,51.3,49.1,29.93,South,169,0.0,1.0,92,0.00,,,0.00,meteohub,2013-05-11 01:57:00,
2013-05-11 04:02:00,51.3,48.7,29.93,South,169,0.0,0.0,91,0.00,,,0.00,meteohub,2013-05-11 02:02:00,
2013-05-11 04:07:00,51.3,48.7,29.93,South,169,0.0,1.0,91,0.00,,,0.00,meteohub,2013-05-11 02:07:00,
2013-05-11 04:12:00,51.3,48.7,29.93,South,169,0.0,1.0,91,0.00,,,0.00,meteohub,2013-05-11 02:12:00,
2013-05-11 04:22:00,51.4,48.6,29.93,South,169,0.0,1.0,90,0.00,,,0.00,meteohub,2013-05-11 02:22:00,
2013-05-11 04:27:00,51.4,48.6,29.93,South,169,0.0,1.0,90,0.00,,,0.00,meteohub,2013-05-11 02:27:00,
2013-05-11 04:32:00,51.4,48.6,29.93,South,169,0.0,1.0,90,0.00,,,0.00,meteohub,2013-05-11 02:32:00,
2013-05-11 04:37:00,51.4,48.4,29.93,South,169,0.0,1.0,89,0.00,,,0.00,meteohub,2013-05-11 02:37:00,
2013-05-11 04:42:00,51.4,48.6,29.93,South,169,0.0,1.0,90,0.00,,,0.00,meteohub,2013-05-11 02:42:00,
2013-05-11 04:47:00,51.4,48.4,29.93,South,169,1.0,1.0,89,0.00,,,0.00,meteohub,2013-05-11 02:47:00,
2013-05-11 04:52:00,51.4,48.4,29.93,South,169,0.0,2.0,89,0.00,,,0.00,meteohub,2013-05-11 02:52:00,
2013-05-11 04:57:00,51.4,48.4,29.93,South,169,1.0,2.0,89,0.00,,,0.00,meteohub,2013-05-11 02:57:00,
2013-05-11 05:02:00,51.4,48.4,29.93,South,169,0.0,2.0,89,0.00,,,0.00,meteohub,2013-05-11 03:02:00,
2013-05-11 05:07:00,51.4,48.4,29.93,South,169,0.0,2.0,89,0.00,,,0.00,meteohub,2013-05-11 03:07:00,
2013-05-11 05:17:00,51.4,48.4,29.92,South,186,1.0,1.0,89,0.00,,,0.00,meteohub,2013-05-11 03:17:00,
2013-05-11 05:22:00,51.4,48.4,29.93,South,169,0.0,4.0,89,0.00,,,0.00,meteohub,2013-05-11 03:22:00,
2013-05-11 05:27:00,51.4,48.0,29.93,South,170,1.0,4.0,88,0.00,,,0.00,meteohub,2013-05-11 03:27:00,
2013-05-11 05:32:00,51.4,48.4,29.93,South,171,1.0,4.0,89,0.00,,,0.00,meteohub,2013-05-11 03:32:00,
2013-05-11 05:42:00,51.4,48.4,29.92,SSE,161,2.0,2.0,89,0.00,,,0.00,meteohub,2013-05-11 03:42:00,
2013-05-11 05:47:00,51.4,48.0,29.92,SSE,162,0.0,2.0,88,0.00,,,0.00,meteohub,2013-05-11 03:47:00,
2013-05-11 05:52:00,51.4,48.0,29.92,SSE,164,0.0,3.0,88,0.00,,,0.00,meteohub,2013-05-11 03:52:00,
2013-05-11 05:57:00,51.4,48.0,29.93,SSE,163,0.0,3.0,88,0.00,,,0.00,meteohub,2013-05-11 03:57:00,
2013-05-11 06:02:00,51.4,48.0,29.92,SSE,163,0.0,3.0,88,0.00,,,0.00,meteohub,2013-05-11 04:02:00,
2013-05-11 06:07:00,51.3,47.8,29.93,SSE,163,0.0,4.0,88,0.00,,,0.00,meteohub,2013-05-11 04:07:00,
2013-05-11 06:12:00,51.3,47.8,29.93,SSE,163,0.0,4.0,88,0.00,,,0.00,meteohub,2013-05-11 04:12:00,
2013-05-11 06:17:00,51.4,48.0,29.93,SSE,163,0.0,2.0,88,0.00,,,0.00,meteohub,2013-05-11 04:17:00,
2013-05-11 06:27:00,51.4,48.0,29.93,SSE,165,2.0,4.0,88,0.00,,,0.00,meteohub,2013-05-11 04:27:00,
2013-05-11 06:32:00,51.4,48.0,29.93,SSE,165,1.0,5.0,88,0.00,,,0.00,meteohub,2013-05-11 04:32:00,
2013-05-11 06:37:00,51.4,48.0,29.93,South,169,1.0,5.0,88,0.00,,,0.00,meteohub,2013-05-11 04:37:00,
2013-05-11 06:42:00,51.4,48.0,29.93,South,172,0.0,5.0,88,0.00,,,0.00,meteohub,2013-05-11 04:42:00,
2013-05-11 06:47:00,51.4,48.0,29.93,SSE,164,0.0,5.0,88,0.00,,,0.00,meteohub,2013-05-11 04:47:00,
2013-05-11 06:52:00,51.6,48.2,29.93,SSE,164,0.0,4.0,88,0.00,,,0.00,meteohub,2013-05-11 04:52:00,
2013-05-11 07:02:00,51.6,47.8,29.93,SSE,167,1.0,3.0,87,0.00,,,0.00,meteohub,2013-05-11 05:02:00,
2013-05-11 07:12:00,52.0,48.2,29.93,SSE,165,1.0,4.0,87,0.00,,,0.00,meteohub,2013-05-11 05:12:00,
2013-05-11 07:17:00,52.0,48.2,29.93,SSE,159,0.0,4.0,87,0.00,,,0.00,meteohub,2013-05-11 05:17:00,
2013-05-11 07:22:00,52.0,48.2,29.93,SSE,159,0.0,3.0,87,0.00,,,0.00,meteohub,2013-05-11 05:22:00,
2013-05-11 07:27:00,52.0,48.2,29.93,SSE,161,1.0,3.0,87,0.00,,,0.00,meteohub,2013-05-11 05:27:00,
2013-05-11 07:32:00,52.0,47.8,29.93,SSE,165,1.0,4.0,86,0.00,,,0.00,meteohub,2013-05-11 05:32:00,
2013-05-11 07:37:00,52.0,48.2,29.93,SSE,163,1.0,4.0,87,0.00,,,0.00,meteohub,2013-05-11 05:37:00,
2013-05-11 07:42:00,52.2,48.4,29.93,South,177,0.0,5.0,87,0.00,,,0.00,meteohub,2013-05-11 05:42:00,
2013-05-11 07:47:00,52.2,48.0,29.93,SSE,165,1.0,5.0,86,0.00,,,0.00,meteohub,2013-05-11 05:47:00,
2013-05-11 07:57:00,52.3,48.2,29.93,SSE,163,2.0,5.0,86,0.00,,,0.00,meteohub,2013-05-11 05:57:00,
2013-05-11 08:02:00,52.3,48.2,29.93,SSE,162,4.0,5.0,86,0.00,,,0.00,meteohub,2013-05-11 06:02:00,
2013-05-11 08:07:00,52.5,48.4,29.93,SSE,158,0.0,5.0,86,0.00,,,0.00,meteohub,2013-05-11 06:07:00,
2013-05-11 08:12:00,52.5,48.2,29.93,SSE,166,2.0,6.0,85,0.00,,,0.00,meteohub,2013-05-11 06:12:00,
2013-05-11 08:22:00,52.7,48.4,29.93,SSE,162,0.0,6.0,85,0.00,,,0.00,meteohub,2013-05-11 06:22:00,
2013-05-11 08:27:00,52.9,48.6,29.94,SSE,167,1.0,6.0,85,0.00,,,0.00,meteohub,2013-05-11 06:27:00,
2013-05-11 08:32:00,52.9,48.6,29.93,SSE,162,0.0,5.0,85,0.00,,,0.00,meteohub,2013-05-11 06:32:00,
2013-05-11 08:37:00,52.9,48.6,29.93,SSE,163,0.0,5.0,85,0.00,,,0.00,meteohub,2013-05-11 06:37:00,
2013-05-11 08:42:00,52.9,48.2,29.93,SSE,168,0.0,4.0,84,0.00,,,0.00,meteohub,2013-05-11 06:42:00,
2013-05-11 08:47:00,52.9,48.2,29.93,SSE,159,0.0,6.0,84,0.00,,,0.00,meteohub,2013-05-11 06:47:00,
2013-05-11 08:52:00,53.1,48.4,29.93,SSE,168,0.0,6.0,84,0.00,,,0.00,meteohub,2013-05-11 06:52:00,
2013-05-11 08:57:00,53.1,48.4,29.93,SSE,159,2.0,6.0,84,0.00,,,0.00,meteohub,2013-05-11 06:57:00,
2013-05-11 09:02:00,53.1,48.4,29.93,South,174,0.0,4.0,84,0.00,,,0.00,meteohub,2013-05-11 07:02:00,
2013-05-11 09:07:00,53.2,48.6,29.93,South,175,0.0,4.0,84,0.00,,,0.00,meteohub,2013-05-11 07:07:00,
2013-05-11 09:12:00,53.1,48.0,29.93,South,175,1.0,4.0,83,0.00,,,0.00,meteohub,2013-05-11 07:12:00,
2013-05-11 09:22:00,53.1,48.4,29.93,SSE,157,1.0,6.0,84,0.00,,,0.00,meteohub,2013-05-11 07:22:00,
2013-05-11 09:27:00,53.1,48.0,29.93,SSE,157,1.0,6.0,83,0.00,,,0.00,meteohub,2013-05-11 07:27:00,
2013-05-11 09:32:00,53.1,47.7,29.93,SSE,163,2.0,5.0,82,0.00,,,0.00,meteohub,2013-05-11 07:32:00,
2013-05-11 09:37:00,52.9,47.8,29.93,SSW,193,0.0,5.0,83,0.00,,,0.00,meteohub,2013-05-11 07:37:00,
2013-05-11 09:42:00,52.9,47.8,29.93,SSE,159,0.0,3.0,83,0.00,,,0.00,meteohub,2013-05-11 07:42:00,
2013-05-11 09:47:00,52.9,48.2,29.93,South,169,1.0,4.0,84,0.00,,,0.00,meteohub,2013-05-11 07:47:00,
2013-05-11 09:52:00,52.7,47.7,29.93,SSE,162,1.0,4.0,83,0.00,,,0.00,meteohub,2013-05-11 07:52:00,
2013-05-11 09:57:00,52.7,47.7,29.93,SSE,164,0.0,4.0,83,0.00,,,0.00,meteohub,2013-05-11 07:57:00,
2013-05-11 10:02:00,52.7,47.7,29.94,SSE,167,2.0,4.0,83,0.00,,,0.00,meteohub,2013-05-11 08:02:00,
2013-05-11 10:12:00,52.5,47.8,29.93,South,177,0.0,4.0,84,0.00,,,0.00,meteohub,2013-05-11 08:12:00,
2013-05-11 10:22:00,52.5,48.4,29.93,SSE,165,4.0,4.0,86,0.00,,,0.00,meteohub,2013-05-11 08:22:00,
2013-05-11 10:27:00,52.5,48.4,29.93,SSE,153,3.0,6.0,86,0.00,,,0.00,meteohub,2013-05-11 08:27:00,
2013-05-11 10:32:00,52.5,48.7,29.93,South,178,0.0,6.0,87,0.00,,,0.00,meteohub,2013-05-11 08:32:00,
2013-05-11 10:37:00,52.7,48.6,29.93,SSE,163,2.0,5.0,86,0.00,,,0.00,meteohub,2013-05-11 08:37:00,
2013-05-11 10:42:00,52.7,48.6,29.93,SSE,165,0.0,5.0,86,0.00,,,0.00,meteohub,2013-05-11 08:42:00,
2013-05-11 10:52:00,52.9,48.6,29.93,South,171,2.0,4.0,85,0.00,,,0.00,meteohub,2013-05-11 08:52:00,
2013-05-11 10:57:00,53.1,48.7,29.93,South,169,1.0,5.0,85,0.00,,,0.00,meteohub,2013-05-11 08:57:00,
2013-05-11 11:02:00,53.2,49.1,29.93,SSE,158,5.0,5.0,86,0.00,,,0.00,meteohub,2013-05-11 09:02:00,
2013-05-11 11:07:00,53.2,48.2,29.93,SSE,159,0.0,5.0,83,0.00,,,0.00,meteohub,2013-05-11 09:07:00,
2013-05-11 11:12:00,53.4,48.7,29.93,South,177,1.0,5.0,84,0.00,,,0.00,meteohub,2013-05-11 09:12:00,
2013-05-11 11:22:00,53.8,48.4,29.93,SSE,166,1.0,5.0,82,0.00,,,0.00,meteohub,2013-05-11 09:22:00,
2013-05-11 11:32:00,54.0,48.9,29.93,SSE,167,1.0,6.0,83,0.00,,,0.00,meteohub,2013-05-11 09:32:00,
2013-05-11 11:37:00,54.0,48.6,29.93,SSE,164,1.0,6.0,82,0.00,,,0.00,meteohub,2013-05-11 09:37:00,
2013-05-11 11:42:00,54.1,48.7,29.93,SSE,163,1.0,6.0,82,0.00,,,0.00,meteohub,2013-05-11 09:42:00,
2013-05-11 11:47:00,54.0,47.3,29.93,SSE,163,0.0,5.0,78,0.00,,,0.00,meteohub,2013-05-11 09:47:00,
2013-05-11 11:52:00,54.1,47.8,29.93,SSE,168,1.0,5.0,79,0.00,,,0.00,meteohub,2013-05-11 09:52:00,
2013-05-11 11:57:00,54.3,48.0,29.93,South,175,1.0,5.0,79,0.00,,,0.00,meteohub,2013-05-11 09:57:00,
2013-05-11 12:07:00,54.7,48.0,29.93,SSE,167,0.0,5.0,78,0.00,,,0.00,meteohub,2013-05-11 10:07:00,
2013-05-11 12:12:00,54.7,47.7,29.92,SSE,159,0.0,5.0,77,0.00,,,0.00,meteohub,2013-05-11 10:12:00,
2013-05-11 12:17:00,54.9,47.8,29.92,SSE,163,1.0,5.0,77,0.00,,,0.00,meteohub,2013-05-11 10:17:00,
2013-05-11 12:22:00,55.0,48.4,29.92,SSE,163,0.0,2.0,78,0.00,,,0.00,meteohub,2013-05-11 10:22:00,
2013-05-11 12:32:00,55.9,49.5,29.92,SSE,163,0.0,4.0,79,0.01,,,0.01,meteohub,2013-05-11 10:32:00,
2013-05-11 12:37:00,56.5,48.9,29.92,SSE,162,0.0,1.0,76,0.01,,,0.01,meteohub,2013-05-11 10:37:00,
2013-05-11 12:42:00,56.3,48.2,29.92,SSE,165,0.0,3.0,74,0.01,,,0.01,meteohub,2013-05-11 10:42:00,
2013-05-11 12:47:00,56.5,49.3,29.92,SSE,150,0.0,3.0,77,0.01,,,0.01,meteohub,2013-05-11 10:47:00,
2013-05-11 12:52:00,56.7,49.1,29.92,South,169,0.0,4.0,76,0.01,,,0.01,meteohub,2013-05-11 10:52:00,
2013-05-11 12:57:00,56.8,49.6,29.92,South,180,0.0,4.0,77,0.01,,,0.01,meteohub,2013-05-11 10:57:00,
2013-05-11 13:07:00,56.8,48.9,29.92,South,190,1.0,3.0,75,0.01,,,0.01,meteohub,2013-05-11 11:07:00,
2013-05-11 13:12:00,56.8,48.9,29.92,SSE,166,0.0,3.0,75,0.01,,,0.01,meteohub,2013-05-11 11:12:00,
2013-05-11 13:17:00,57.0,49.5,29.91,SSE,167,0.0,3.0,76,0.01,,,0.01,meteohub,2013-05-11 11:17:00,
2013-05-11 13:22:00,57.4,49.5,29.91,South,176,2.0,3.0,75,0.00,,,0.01,meteohub,2013-05-11 11:22:00,
2013-05-11 13:27:00,57.6,48.9,29.91,South,171,0.0,4.0,73,0.00,,,0.01,meteohub,2013-05-11 11:27:00,
2013-05-11 13:32:00,57.6,47.8,29.91,SSE,163,0.0,4.0,70,0.00,,,0.01,meteohub,2013-05-11 11:32:00,
2013-05-11 13:37:00,57.7,46.9,29.91,South,172,1.0,4.0,67,0.00,,,0.01,meteohub,2013-05-11 11:37:00,
2013-05-11 13:42:00,57.6,48.6,29.91,SSE,166,0.0,4.0,72,0.00,,,0.01,meteohub,2013-05-11 11:42:00,
2013-05-11 13:47:00,57.6,48.2,29.91,SSE,166,0.0,4.0,71,0.00,,,0.01,meteohub,2013-05-11 11:47:00,
2013-05-11 13:52:00,57.7,48.0,29.91,SSE,166,0.0,4.0,70,0.00,,,0.01,meteohub,2013-05-11 11:52:00,
2013-05-11 14:02:00,57.9,47.8,29.91,SSE,161,0.0,4.0,69,0.00,,,0.01,meteohub,2013-05-11 12:02:00,
2013-05-11 14:07:00,57.9,47.8,29.91,West,261,0.0,4.0,69,0.00,,,0.01,meteohub,2013-05-11 12:07:00,
2013-05-11 14:12:00,57.9,48.6,29.91,West,271,0.0,2.0,71,0.00,,,0.01,meteohub,2013-05-11 12:12:00,
2013-05-11 14:17:00,57.9,48.2,29.91,SW,227,0.0,2.0,70,0.00,,,0.01,meteohub,2013-05-11 12:17:00,
2013-05-11 14:22:00,57.9,49.3,29.91,SW,227,0.0,1.0,73,0.00,,,0.01,meteohub,2013-05-11 12:22:00,
2013-05-11 14:27:00,57.7,48.0,29.91,North,355,1.0,2.0,70,0.00,,,0.01,meteohub,2013-05-11 12:27:00,
2013-05-11 14:32:00,57.6,48.6,29.91,North,355,0.0,2.0,72,0.00,,,0.01,meteohub,2013-05-11 12:32:00,
2013-05-11 14:37:00,57.4,47.7,29.90,NNW,336,0.0,2.0,70,0.00,,,0.01,meteohub,2013-05-11 12:37:00,
2013-05-11 14:42:00,57.4,47.7,29.90,SW,227,0.0,2.0,70,0.00,,,0.01,meteohub,2013-05-11 12:42:00,
2013-05-11 14:47:00,57.2,47.1,29.90,NNE,15,0.0,2.0,69,0.00,,,0.01,meteohub,2013-05-11 12:47:00,
2013-05-11 14:52:00,57.2,48.2,29.90,SW,227,0.0,3.0,72,0.00,,,0.01,meteohub,2013-05-11 12:52:00,
2013-05-11 14:57:00,57.4,49.1,29.90,SW,227,0.0,3.0,74,0.00,,,0.01,meteohub,2013-05-11 12:57:00,
2013-05-11 15:02:00,57.6,50.0,29.90,SW,227,0.0,3.0,76,0.00,,,0.01,meteohub,2013-05-11 13:02:00,
2013-05-11 15:07:00,57.4,49.5,29.90,North,5,1.0,2.0,75,0.00,,,0.01,meteohub,2013-05-11 13:07:00,
2013-05-11 15:17:00,57.4,51.3,29.90,SW,227,1.0,5.0,80,0.00,,,0.01,meteohub,2013-05-11 13:17:00,
2013-05-11 15:22:00,57.2,51.4,29.90,SW,227,0.0,5.0,81,0.00,,,0.01,meteohub,2013-05-11 13:22:00,
2013-05-11 15:27:00,57.0,51.6,29.90,SW,227,1.0,3.0,82,0.00,,,0.01,meteohub,2013-05-11 13:27:00,
2013-05-11 15:32:00,57.0,51.6,29.90,SW,227,1.0,2.0,82,0.00,,,0.01,meteohub,2013-05-11 13:32:00,
2013-05-11 15:37:00,56.8,51.4,29.90,NNW,336,1.0,2.0,82,0.00,,,0.01,meteohub,2013-05-11 13:37:00,
2013-05-11 15:42:00,56.5,50.7,29.90,SW,227,0.0,2.0,81,0.00,,,0.01,meteohub,2013-05-11 13:42:00,
2013-05-11 15:47:00,56.5,51.6,29.90,SW,227,0.0,2.0,84,0.00,,,0.01,meteohub,2013-05-11 13:47:00,
2013-05-11 15:52:00,56.5,51.1,29.90,SW,227,1.0,2.0,82,0.00,,,0.01,meteohub,2013-05-11 13:52:00,
2013-05-11 15:57:00,56.1,50.4,29.90,SW,227,0.0,2.0,81,0.00,,,0.01,meteohub,2013-05-11 13:57:00,
2013-05-11 16:07:00,56.3,50.9,29.90,SW,227,1.0,2.0,82,0.00,,,0.01,meteohub,2013-05-11 14:07:00,
2013-05-11 16:17:00,56.3,50.5,29.90,SW,227,2.0,4.0,81,0.00,,,0.01,meteohub,2013-05-11 14:17:00,
2013-05-11 16:22:00,56.1,50.4,29.90,SW,227,0.0,4.0,81,0.00,,,0.01,meteohub,2013-05-11 14:22:00,
2013-05-11 16:32:00,56.7,50.5,29.90,SW,227,1.0,8.0,80,0.00,,,0.01,meteohub,2013-05-11 14:32:00,
2013-05-11 16:37:00,56.7,49.8,29.90,SW,227,1.0,8.0,78,0.00,,,0.01,meteohub,2013-05-11 14:37:00,
2013-05-11 16:42:00,56.7,50.2,29.90,SW,227,0.0,8.0,79,0.00,,,0.01,meteohub,2013-05-11 14:42:00,
2013-05-11 16:47:00,56.7,50.5,29.90,SW,227,0.0,4.0,80,0.00,,,0.01,meteohub,2013-05-11 14:47:00,
2013-05-11 16:57:00,56.5,50.7,29.89,SW,227,0.0,3.0,81,0.00,,,0.01,meteohub,2013-05-11 14:57:00,
2013-05-11 17:07:00,56.3,51.3,29.90,WNW,283,2.0,5.0,83,0.00,,,0.01,meteohub,2013-05-11 15:07:00,
2013-05-11 17:12:00,55.9,50.9,29.90,SSE,161,0.0,2.0,83,0.00,,,0.01,meteohub,2013-05-11 15:12:00,
2013-05-11 17:17:00,55.9,51.3,29.89,SW,227,0.0,2.0,84,0.00,,,0.01,meteohub,2013-05-11 15:17:00,
2013-05-11 17:22:00,55.8,50.7,29.89,SW,227,1.0,2.0,83,0.00,,,0.01,meteohub,2013-05-11 15:22:00,
2013-05-11 17:32:00,56.1,50.7,29.89,SW,227,0.0,1.0,82,0.00,,,0.01,meteohub,2013-05-11 15:32:00,
2013-05-11 17:37:00,56.1,51.1,29.89,SW,227,3.0,3.0,83,0.00,,,0.01,meteohub,2013-05-11 15:37:00,
2013-05-11 17:42:00,56.1,51.1,29.89,SW,227,0.0,3.0,83,0.00,,,0.01,meteohub,2013-05-11 15:42:00,
2013-05-11 17:47:00,56.1,51.1,29.89,SW,227,0.0,3.0,83,0.00,,,0.01,meteohub,2013-05-11 15:47:00,
2013-05-11 17:52:00,55.9,51.3,29.89,South,178,0.0,3.0,84,0.00,,,0.01,meteohub,2013-05-11 15:52:00,
2013-05-11 17:57:00,55.9,50.9,29.89,West,265,1.0,3.0,83,0.00,,,0.01,meteohub,2013-05-11 15:57:00,
2013-05-11 18:02:00,55.8,50.7,29.89,SSE,158,0.0,3.0,83,0.00,,,0.01,meteohub,2013-05-11 16:02:00,
2013-05-11 18:07:00,55.6,50.5,29.89,SW,227,0.0,3.0,83,0.00,,,0.01,meteohub,2013-05-11 16:07:00,
2013-05-11 18:12:00,55.6,50.9,29.89,SW,227,0.0,2.0,84,0.00,,,0.01,meteohub,2013-05-11 16:12:00,
2013-05-11 18:17:00,55.4,50.4,29.89,SW,233,0.0,2.0,83,0.00,,,0.01,meteohub,2013-05-11 16:17:00,
2013-05-11 18:22:00,55.2,49.8,29.89,NW,309,0.0,2.0,82,0.00,,,0.01,meteohub,2013-05-11 16:22:00,
2013-05-11 18:27:00,55.0,49.3,29.89,SW,227,0.0,3.0,81,0.00,,,0.01,meteohub,2013-05-11 16:27:00,
2013-05-11 18:32:00,55.0,49.3,29.89,SW,227,0.0,3.0,81,0.00,,,0.01,meteohub,2013-05-11 16:32:00,
2013-05-11 18:37:00,54.9,49.1,29.89,SW,227,0.0,2.0,81,0.00,,,0.01,meteohub,2013-05-11 16:37:00,
2013-05-11 18:42:00,54.9,48.7,29.89,SW,227,0.0,2.0,80,0.00,,,0.01,meteohub,2013-05-11 16:42:00,
2013-05-11 18:47:00,54.9,49.1,29.89,SW,227,0.0,1.0,81,0.00,,,0.01,meteohub,2013-05-11 16:47:00,
2013-05-11 18:57:00,54.9,49.5,29.89,SW,227,0.0,1.0,82,0.00,,,0.01,meteohub,2013-05-11 16:57:00,
2013-05-11 19:02:00,54.9,49.5,29.89,SW,227,0.0,1.0,82,0.00,,,0.01,meteohub,2013-05-11 17:02:00,
2013-05-11 19:07:00,54.9,48.7,29.89,SW,227,0.0,1.0,80,0.00,,,0.01,meteohub,2013-05-11 17:07:00,
2013-05-11 19:12:00,54.9,48.7,29.89,SW,227,0.0,1.0,80,0.00,,,0.01,meteohub,2013-05-11 17:12:00,
2013-05-11 19:17:00,54.9,48.6,29.89,SW,227,0.0,2.0,79,0.00,,,0.01,meteohub,2013-05-11 17:17:00,
2013-05-11 19:22:00,54.9,47.8,29.89,SW,227,0.0,2.0,77,0.00,,,0.01,meteohub,2013-05-11 17:22:00,
2013-05-11 19:27:00,54.7,47.7,29.89,West,280,1.0,2.0,77,0.00,,,0.01,meteohub,2013-05-11 17:27:00,
2013-05-11 19:32:00,54.7,48.0,29.89,WSW,251,0.0,2.0,78,0.00,,,0.01,meteohub,2013-05-11 17:32:00,
2013-05-11 19:37:00,54.7,48.0,29.89,WSW,237,0.0,2.0,78,0.00,,,0.01,meteohub,2013-05-11 17:37:00,
2013-05-11 19:47:00,54.7,48.4,29.89,WSW,237,0.0,1.0,79,0.00,,,0.01,meteohub,2013-05-11 17:47:00,
2013-05-11 19:52:00,54.7,48.4,29.89,SW,227,0.0,1.0,79,0.00,,,0.01,meteohub,2013-05-11 17:52:00,
2013-05-11 19:57:00,54.5,48.4,29.89,SW,227,0.0,1.0,80,0.00,,,0.01,meteohub,2013-05-11 17:57:00,
2013-05-11 20:02:00,54.3,48.6,29.89,SW,227,0.0,1.0,81,0.00,,,0.01,meteohub,2013-05-11 18:02:00,
2013-05-11 20:07:00,54.3,48.6,29.89,West,266,0.0,1.0,81,0.00,,,0.01,meteohub,2013-05-11 18:07:00,
2013-05-11 20:17:00,54.1,49.1,29.89,West,262,0.0,1.0,83,0.00,,,0.01,meteohub,2013-05-11 18:17:00,
2013-05-11 20:22:00,54.1,49.1,29.89,South,185,0.0,1.0,83,0.00,,,0.01,meteohub,2013-05-11 18:22:00,
2013-05-11 20:32:00,54.0,49.3,29.89,SW,218,0.0,2.0,84,0.00,,,0.01,meteohub,2013-05-11 18:32:00,
2013-05-11 20:37:00,53.8,49.5,29.90,SSW,208,0.0,1.0,85,0.00,,,0.01,meteohub,2013-05-11 18:37:00,
2013-05-11 20:42:00,53.6,49.5,29.90,West,259,0.0,1.0,86,0.00,,,0.01,meteohub,2013-05-11 18:42:00,
2013-05-11 20:47:00,53.4,49.3,29.90,SW,229,0.0,1.0,86,0.00,,,0.01,meteohub,2013-05-11 18:47:00,
2013-05-11 20:52:00,53.4,49.3,29.90,SSE,153,0.0,1.0,86,0.00,,,0.01,meteohub,2013-05-11 18:52:00,
2013-05-11 20:57:00,53.2,49.5,29.90,SSW,192,0.0,3.0,87,0.00,,,0.01,meteohub,2013-05-11 18:57:00,
2013-05-11 21:02:00,53.2,49.5,29.90,NNW,338,0.0,3.0,87,0.00,,,0.01,meteohub,2013-05-11 19:02:00,
2013-05-11 21:07:00,53.1,49.3,29.90,West,267,0.0,2.0,87,0.00,,,0.01,meteohub,2013-05-11 19:07:00,
2013-05-11 21:12:00,52.9,49.5,29.90,SW,224,0.0,2.0,88,0.00,,,0.01,meteohub,2013-05-11 19:12:00,
2013-05-11 21:17:00,52.9,49.5,29.90,SW,236,0.0,2.0,88,0.00,,,0.01,meteohub,2013-05-11 19:17:00,
2013-05-11 21:22:00,52.9,49.5,29.90,SSE,166,0.0,2.0,88,0.00,,,0.01,meteohub,2013-05-11 19:22:00,
2013-05-11 21:27:00,52.7,49.5,29.90,SSW,205,0.0,2.0,89,0.00,,,0.01,meteohub,2013-05-11 19:27:00,
2013-05-11 21:32:00,52.5,49.5,29.91,West,267,0.0,2.0,89,0.00,,,0.01,meteohub,2013-05-11 19:32:00,
2013-05-11 21:37:00,52.5,49.5,29.91,WSW,254,0.0,2.0,89,0.00,,,0.01,meteohub,2013-05-11 19:37:00,
2013-05-11 21:42:00,52.5,49.5,29.91,SW,236,0.0,2.0,89,0.00,,,0.01,meteohub,2013-05-11 19:42:00,
2013-05-11 21:47:00,52.3,49.3,29.91,West,266,0.0,2.0,89,0.00,,,0.01,meteohub,2013-05-11 19:47:00,
2013-05-11 21:52:00,52.3,49.3,29.90,SSW,200,0.0,1.0,89,0.00,,,0.01,meteohub,2013-05-11 19:52:00,
2013-05-11 21:57:00,52.3,49.3,29.90,NW,320,0.0,2.0,89,0.00,,,0.01,meteohub,2013-05-11 19:57:00,
2013-05-11 22:02:00,52.3,49.5,29.91,NNW,328,0.0,2.0,90,0.00,,,0.01,meteohub,2013-05-11 20:02:00,
2013-05-11 22:12:00,52.2,49.3,29.91,ENE,64,0.0,2.0,90,0.00,,,0.01,meteohub,2013-05-11 20:12:00,
2013-05-11 22:17:00,52.2,49.3,29.91,NE,38,0.0,2.0,90,0.00,,,0.01,meteohub,2013-05-11 20:17:00,
2013-05-11 22:22:00,52.2,49.3,29.91,WSW,240,0.0,2.0,90,0.00,,,0.01,meteohub,2013-05-11 20:22:00,
2013-05-11 22:27:00,52.2,49.3,29.91,North,0,0.0,2.0,90,0.00,,,0.01,meteohub,2013-05-11 20:27:00,
2013-05-11 22:32:00,52.0,49.1,29.91,SSE,167,0.0,2.0,90,0.00,,,0.01,meteohub,2013-05-11 20:32:00,
2013-05-11 22:37:00,52.0,49.5,29.91,SSE,167,0.0,1.0,91,0.00,,,0.01,meteohub,2013-05-11 20:37:00,
2013-05-11 22:42:00,52.0,49.5,29.91,SSW,209,0.0,1.0,91,0.00,,,0.01,meteohub,2013-05-11 20:42:00,
2013-05-11 22:47:00,51.8,49.3,29.91,South,190,1.0,2.0,91,0.00,,,0.01,meteohub,2013-05-11 20:47:00,
2013-05-11 22:52:00,51.6,49.1,29.91,SSW,209,0.0,2.0,91,0.00,,,0.01,meteohub,2013-05-11 20:52:00,
2013-05-11 22:57:00,51.6,49.1,29.91,West,269,0.0,2.0,91,0.00,,,0.01,meteohub,2013-05-11 20:57:00,
2013-05-11 23:02:00,51.4,49.3,29.91,SW,219,0.0,2.0,92,0.00,,,0.01,meteohub,2013-05-11 21:02:00,
2013-05-11 23:07:00,51.4,49.3,29.91,SSW,213,0.0,1.0,92,0.00,,,0.01,meteohub,2013-05-11 21:07:00,
2013-05-11 23:12:00,51.4,49.3,29.91,South,183,1.0,2.0,92,0.00,,,0.01,meteohub,2013-05-11 21:12:00,
2013-05-11 23:17:00,51.4,49.3,29.91,SSW,195,0.0,2.0,92,0.00,,,0.01,meteohub,2013-05-11 21:17:00,
2013-05-11 23:22:00,51.3,49.1,29.91,South,180,2.0,2.0,92,0.00,,,0.01,meteohub,2013-05-11 21:22:00,
2013-05-11 23:27:00,51.3,49.3,29.91,North,350,0.0,2.0,93,0.00,,,0.01,meteohub,2013-05-11 21:27:00,
2013-05-11 23:37:00,51.3,49.3,29.91,SSE,162,1.0,2.0,93,0.00,,,0.01,meteohub,2013-05-11 21:37:00,
2013-05-11 23:42:00,51.3,49.3,29.91,NNW,340,1.0,2.0,93,0.00,,,0.01,meteohub,2013-05-11 21:42:00,
2013-05-11 23:47:00,51.3,49.3,29.91,West,263,0.0,2.0,93,0.00,,,0.01,meteohub,2013-05-11 21:47:00,
2013-05-11 23:52:00,51.3,49.3,29.91,NW,317,1.0,3.0,93,0.00,,,0.01,meteohub,2013-05-11 21:52:00,
2013-05-11 23:57:00,51.3,49.3,29.91,South,186,0.0,4.0,93,0.00,,,0.01,meteohub,2013-05-11 21:57:00,